Station AWRT2 - 8774230 - Aransas Wildlife Refuge, TX Image indicating link to RSS feed of recent meteorological observations for station AWRT2


Conditions at AWRT2 as of
(8:18 am CDT)
1318 GMT on 04/16/2024:
     

Click on the graph icon in the table below to see a time series plot of the last five days of that observation.

5-day plot - Wind Direction Wind Direction (WDIR):SSE ( 150 deg true )
5-day plot - Wind Speed Wind Speed (WSPD): 11.1 kts
5-day plot - Wind Gust Wind Gust (GST): 15.0 kts
5-day plot - Atmospheric Pressure Atmospheric Pressure (PRES):29.80 in
5-day plot - Air Temperature Air Temperature (ATMP): 75.0 °F
5-day plot - Water Temperature Water Temperature (WTMP): 76.3 °F
5-day plot - Wind Speed at 10 Meters Wind Speed at 10 meters (WSPD10M): 11.7 kts
5-day plot - Wind Speed at 20 Meters Wind Speed at 20 meters (WSPD20M): 11.7 kts
5-day plot -  Wind Speed, Wind Gust and Atmospheric Pressure Combined plot of Wind Speed, Gust, and Air Pressure
Previous observations
TIME
(CDT)
5-day plot - Wind Direction
WDIR
 
5-day plot - Wind Speed
WSPD
kts
5-day plot - Wind Gust
GST
kts
5-day plot - Wave Height
WVHT
ft
5-day plot - Dominant Wave Period
DPD
sec
5-day plot - Average Wave Period
APD
sec
5-day plot - Mean Wave Direction
MWD
 
5-day plot - Atmospheric Pressure
PRES
in
5-day plot - Pressure Tendency
PTDY
in
5-day plot - Air Temperature
ATMP
°F
5-day plot - Water Temperature
WTMP
°F
5-day plot - Dew Point
DEWP
°F
5-day plot - Salinity
SAL
psu
5-day plot - Visibility
VIS
nmi
5-day plot - Tide (above MLLW)
TIDE
ft
2024-04-16 08:12 amSSE 11.1 15.0----29.79- 75.0 76.3----
2024-04-16 08:06 amSSE 9.9 15.0----29.79- 75.0 76.3----
2024-04-16 08:00 amSSE 8.9 14.0----29.79+0.03 74.8 76.3----
2024-04-16 07:54 amSSE 11.1 15.0----29.79- 75.0 76.3----
2024-04-16 07:48 am SE 11.1 17.1----29.79- 74.8 76.3----
2024-04-16 07:42 am SE 9.9 13.0----29.79- 74.7 76.3----
2024-04-16 07:36 amSSE 11.1 14.0----29.79- 74.8 76.3----
2024-04-16 07:30 amSSE 8.9 12.0----29.78- 74.8 76.3----
2024-04-16 07:24 amSSE 9.9 13.0----29.78- 74.8 76.3----
2024-04-16 07:18 amSSE 9.9 13.0----29.78- 74.8 76.3----
2024-04-16 07:12 am SE 8.9 13.0----29.78- 74.8 76.3----
2024-04-16 07:06 am SE 8.9 13.0----29.78- 74.8 76.3----
2024-04-16 07:00 amSSE 8.0 12.0----29.78+0.02 74.8 76.3----
2024-04-16 06:54 amSSE 8.9 12.0----29.78- 74.8 76.3----
2024-04-16 06:48 amSSE 8.9 12.0----29.78- 74.8 76.3----
2024-04-16 06:42 amSSE 8.9 13.0----29.78- 74.8 76.3----
2024-04-16 06:36 amSSE 8.0 11.1----29.78- 74.7 76.3----
2024-04-16 06:30 amSSE 8.9 11.1----29.78- 74.7 76.3----
2024-04-16 06:24 amSSE 7.0 12.0----29.78- 74.8 76.3----
2024-04-16 06:18 amSSE 8.0 11.1----29.77- 74.7 76.3----
2024-04-16 06:12 amSSE 8.9 11.1----29.77- 74.7 76.3----
2024-04-16 06:06 amSSE 8.9 13.0----29.77- 74.8 76.3----
2024-04-16 06:00 amSSE 9.9 13.0----29.77+0.00 74.7 76.3----
2024-04-16 05:54 amSSE 8.9 13.0----29.77- 74.7 76.3----
2024-04-16 05:48 amSSE 9.9 14.0----29.77- 74.7 76.3----
2024-04-16 05:42 amSSE 9.9 13.0----29.77- 74.7 76.1----
2024-04-16 05:36 amSSE 11.1 14.0----29.77- 74.7 76.1----
2024-04-16 05:30 amSSE 12.0 15.0----29.76- 74.7 76.1----
2024-04-16 05:24 amSSE 11.1 15.9----29.76- 74.7 76.1----
2024-04-16 05:18 amSSE 12.0 13.0----29.76- 74.7 76.1----
2024-04-16 05:12 amSSE 8.9 13.0----29.77- 74.7 76.1----
2024-04-16 05:06 amSSE 9.9 14.0----29.76- 74.7 76.1----
2024-04-16 05:00 amSSE 12.0 14.0----29.76-0.03 74.7 75.9----
2024-04-16 04:54 amSSE 12.0 15.0----29.76- 74.7 76.1----
2024-04-16 04:48 amSSE 11.1 14.0----29.76- 74.7 76.1----
2024-04-16 04:42 amSSE 11.1 15.9----29.76- 74.7 76.3----
2024-04-16 04:36 amSSE 12.0 14.0----29.76- 74.5 76.3----
2024-04-16 04:30 amSSE 11.1 14.0----29.76- 74.5 76.3----
2024-04-16 04:24 amSSE 9.9 14.0----29.76- 74.5 76.3----
2024-04-16 04:18 amSSE 9.9 15.0----29.76- 74.5 76.3----
2024-04-16 04:12 amSSE 12.0 15.0----29.76- 74.5 76.3----
2024-04-16 04:06 amSSE 12.0 15.0----29.76- 74.5 76.3----
2024-04-16 04:00 amSSE 13.0 17.1----29.76-0.04 74.5 76.3----
2024-04-16 03:54 amSSE 15.0 17.1----29.76- 74.5 76.3----
2024-04-16 03:48 amSSE 13.0 17.1----29.76- 74.5 76.3----
2024-04-16 03:42 amSSE 14.0 18.1----29.76- 74.5 76.3----
2024-04-16 03:36 amSSE 15.0 18.1----29.76- 74.5 76.3----
2024-04-16 03:30 amSSE 14.0 18.1----29.76- 74.5 76.3----
2024-04-16 03:24 amSSE 15.0 19.0----29.76- 74.3 76.3----
2024-04-16 03:18 amSSE 13.0 19.0----29.76- 74.5 76.5----
2024-04-16 03:12 amSSE 15.0 21.0----29.76- 74.3 76.5----
2024-04-16 03:06 amSSE 15.9 21.0----29.76- 74.5 76.5----
2024-04-16 03:00 amSSE 15.9 20.0----29.76-0.07 74.5 76.5----
2024-04-16 02:54 amSSE 17.1 22.0----29.77- 74.5 76.5----
2024-04-16 02:48 amSSE 15.9 22.0----29.77- 74.5 76.5----
2024-04-16 02:42 amSSE 15.9 21.0----29.77- 74.5 76.5----
2024-04-16 02:36 amSSE 18.1 22.0----29.77- 74.3 76.5----
2024-04-16 02:30 amSSE 15.0 21.0----29.77- 74.5 76.6----
2024-04-16 02:24 amSSE 15.0 18.1----29.78- 74.5 76.6----
2024-04-16 02:18 amSSE 15.0 19.0----29.78- 74.5 76.8----
2024-04-16 02:12 amSSE 15.0 20.0----29.78- 74.5 76.8----
2024-04-16 02:06 amSSE 15.0 19.0----29.79- 74.5 76.8----
2024-04-16 02:00 amSSE 15.9 19.0----29.79-0.07 74.3 76.8----
2024-04-16 01:54 am SE 13.0 19.0----29.79- 74.3 76.8----
2024-04-16 01:48 am SE 12.0 19.0----29.79- 74.3 76.8----
2024-04-16 01:42 am SE 13.0 19.0----29.79- 74.3 77.0----
2024-04-16 01:36 am SE 14.0 17.1----29.80- 74.3 77.0----
2024-04-16 01:30 am SE 14.0 19.0----29.80- 74.3 77.0----
2024-04-16 01:24 am SE 15.0 19.0----29.80- 74.1 77.0----
2024-04-16 01:18 am SE 15.9 19.0----29.80- 74.1 77.0----
2024-04-16 01:12 am SE 14.0 18.1----29.80- 74.1 77.0----
2024-04-16 01:06 am SE 15.0 18.1----29.80- 74.1 77.0----
2024-04-16 01:00 am SE 15.0 21.0----29.80-0.04 74.1 77.0----
2024-04-16 12:54 am SE 15.9 20.0----29.80- 74.1 77.0----
2024-04-16 12:48 am SE 14.0 18.1----29.80- 74.1 77.0----
2024-04-16 12:42 amESE 15.9 19.0----29.80- 74.1 77.0----
2024-04-16 12:36 amESE 15.0 18.1----29.81- 74.3 77.0----
2024-04-16 12:30 amESE 14.0 17.1----29.81- 74.3 77.0----
2024-04-16 12:24 am SE 12.0 18.1----29.82- 74.7 77.0----
2024-04-16 12:18 am SE 15.0 19.0----29.82- 74.5 77.0----
2024-04-16 12:12 am SE 13.0 18.1----29.83- 74.5 77.0----
2024-04-16 12:06 am SE 12.0 17.1----29.83- 74.5 77.0----
2024-04-16 12:00 am SE 12.0 15.0----29.84+0.02 74.5 77.0----
2024-04-15 11:54 pm SE 13.0 15.9----29.84- 74.5 77.0----
2024-04-15 11:48 pmESE 12.0 15.9----29.84- 74.5 77.0----
2024-04-15 11:42 pm SE 11.1 14.0----29.85- 74.5 77.0----
2024-04-15 11:36 pm SE 12.0 15.0----29.85- 74.5 77.0----
2024-04-15 11:30 pm SE 12.0 15.0----29.85- 74.5 77.0----
2024-04-15 11:24 pm SE 12.0 15.0----29.86- 74.5 77.0----
2024-04-15 11:18 pm SE 8.9 13.0----29.86- 74.7 77.2----
2024-04-15 11:12 pm SE 8.9 14.0----29.86- 74.5 77.2----
2024-04-15 11:06 pm SE 11.1 14.0----29.86- 74.3 77.2----
2024-04-15 11:00 pm SE 9.9 12.0----29.86+0.08 74.3 77.2----
2024-04-15 10:54 pm SE 8.9 13.0----29.86- 74.3 77.0----
2024-04-15 10:48 pm SE 8.0 11.1----29.86- 74.3 77.0----
2024-04-15 10:42 pm SE 8.0 12.0----29.86- 74.3 77.0----
2024-04-15 10:36 pm SE 9.9 12.0----29.85- 74.5 77.0----
2024-04-15 10:30 pm SE 9.9 13.0----29.85- 74.3 77.0----
2024-04-15 10:24 pm SE 8.0 12.0----29.85- 74.3 77.0----
2024-04-15 10:18 pm SE 8.0 12.0----29.85- 74.5 77.0----
2024-04-15 10:12 pm SE 8.9 12.0----29.85- 74.3 77.0----
2024-04-15 10:06 pm SE 8.9 12.0----29.85- 74.3 77.0----
2024-04-15 10:00 pm SE 8.0 12.0----29.84+0.06 74.3 77.0----
2024-04-15 09:54 pm SE 7.0 11.1----29.84- 74.3 77.0----
2024-04-15 09:48 pm SE 7.0 15.0----29.84- 74.5 77.0----
2024-04-15 09:42 pm SE 8.0 11.1----29.83- 74.1 77.0----
2024-04-15 09:36 pm SE 8.9 14.0----29.82- 74.1 77.0----
2024-04-15 09:30 pm SE 12.0 17.1----29.81-- 77.0----
2024-04-15 09:24 pm SE 8.9 15.0----29.81-- 77.0----
2024-04-15 09:18 pm SE 11.1 15.0----29.80- 74.3 77.0----
2024-04-15 09:12 pm SE 9.9 13.0----29.80- 74.3 77.0----
2024-04-15 09:06 pm SE 9.9 13.0----29.81- 74.3 77.0----
2024-04-15 09:00 pmSSE 9.9 17.1----29.81+0.01 74.3 77.0----
2024-04-15 08:54 pm SE 12.0 17.1----29.80- 74.5 77.0----
2024-04-15 08:48 pm SE 13.0 18.1----29.80- 74.3 77.2----
2024-04-15 08:42 pm SE 11.1 17.1----29.80- 74.5 77.2----
2024-04-15 08:36 pmSSE 11.1 15.9----29.80- 74.5 77.2----
2024-04-15 08:30 pm SE 12.0 19.0----29.79- 74.5 77.2----
2024-04-15 08:24 pm SE 14.0 21.0----29.78- 74.3 77.2----
2024-04-15 08:18 pm SE 13.0 20.0----29.79- 74.5 77.4----
2024-04-15 08:12 pmSSE 14.0 20.0----29.79- 74.5 77.4----
2024-04-15 08:06 pm SE 15.0 21.0----29.78- 74.7 77.4----
2024-04-15 08:00 pm SE 15.9 22.0----29.78-0.04- 77.4----
2024-04-15 07:54 pmSSE 15.0 21.0----29.78-- 77.4----
2024-04-15 07:48 pm SE 15.0 22.0----29.78- 74.7 77.4----
2024-04-15 07:42 pm SE 14.0 20.0----29.78- 74.8 77.4----
2024-04-15 07:36 pm SE 15.0 21.0----29.78- 74.8 77.4----
2024-04-15 07:30 pm SE 17.1 21.0----29.78- 74.7 77.4----
2024-04-15 07:24 pm SE 15.0 21.0----29.78- 74.7 77.4----
2024-04-15 07:18 pm SE 15.9 22.0----29.78-- 77.4----
2024-04-15 07:12 pm SE 17.1 22.0----29.78-- 77.4----
2024-04-15 07:06 pm SE 17.1 22.0----29.78-- 77.4----
2024-04-15 07:00 pm SE 15.9 21.0----29.78-0.05 74.8 77.4----
2024-04-15 06:54 pm SE 15.9 20.0----29.78- 74.8 77.4----
2024-04-15 06:48 pm SE 14.0 20.0----29.79- 74.8 77.4----
2024-04-15 06:42 pm SE 14.0 20.0----29.79- 75.0 77.4----
2024-04-15 06:36 pm SE 17.1 21.0----29.80- 74.8 77.4----
2024-04-15 06:30 pm SE 14.0 20.0----29.79- 75.0 77.4----
2024-04-15 06:24 pm SE 15.0 20.0----29.79- 75.0 77.4----
2024-04-15 06:18 pm SE 15.9 19.0----29.80- 75.2 77.4----
2024-04-15 06:12 pm SE 14.0 20.0----29.80- 75.2 77.4----
2024-04-15 06:00 pm SE 14.0 19.0----29.80-0.05 75.4 77.5----
2024-04-15 05:54 pm SE 14.0 20.0----29.81- 75.6 77.5----
2024-04-15 05:48 pm SE 14.0 19.0----29.81- 75.6 77.5----
2024-04-15 05:42 pm SE 13.0 17.1----29.81- 75.9 77.5----
2024-04-15 05:36 pm SE 15.0 19.0----29.81- 75.7 77.5----
2024-04-15 05:30 pm SE 12.0 18.1----29.81-- 77.5----
2024-04-15 05:24 pm SE 14.0 19.0----29.81-- 77.5----
2024-04-15 05:18 pm SE 15.0 21.0----29.81- 75.7 77.4----
2024-04-15 05:12 pm SE 14.0 19.0----29.82- 75.7 77.4----
2024-04-15 05:06 pm SE 15.0 20.0----29.82- 75.6 77.4----
2024-04-15 05:00 pm SE 12.0 19.0----29.82-0.05 75.7 77.4----
2024-04-15 04:54 pm SE 13.0 19.0----29.82- 75.6 77.4----
2024-04-15 04:48 pm SE 15.0 20.0----29.82- 75.4 77.4----
2024-04-15 04:42 pm SE 14.0 19.0----29.82- 75.6 77.4----
2024-04-15 04:36 pm SE 13.0 19.0----29.82- 75.7 77.4----
2024-04-15 04:30 pm SE 14.0 18.1----29.82- 75.6 77.4----
2024-04-15 04:24 pm SE 14.0 18.1----29.82- 75.6 77.4----
2024-04-15 04:18 pm SE 13.0 21.0------ 75.6 77.4----
2024-04-15 04:12 pm SE 15.0 19.0------ 75.6 77.4----
2024-04-15 04:06 pm SE 14.0 19.0------ 75.6 77.4----
2024-04-15 04:00 pm SE 14.0 18.1----29.83-0.05 75.6 77.4----
2024-04-15 03:54 pm SE 13.0 18.1----29.83- 75.6 77.5----
2024-04-15 03:48 pm SE 14.0 20.0----29.83- 75.6 77.5----
2024-04-15 03:42 pm SE 13.0 19.0----29.83- 75.6 77.5----
2024-04-15 03:36 pm SE 14.0 18.1----29.84- 75.6 77.5----
2024-04-15 03:30 pm SE 15.9 20.0----29.84- 75.6 77.5----
2024-04-15 03:24 pm SE 12.0 19.0----29.84- 75.9 77.7----
2024-04-15 03:18 pm SE 15.0 18.1----29.84- 75.7 77.7----
2024-04-15 03:12 pmSSE 15.0 19.0----29.85- 75.7 77.7----
2024-04-15 03:06 pmSSE 14.0 20.0----29.85- 75.9 77.7----
2024-04-15 03:00 pmSSE 15.0 21.0----29.85-0.04 75.7 77.7----
2024-04-15 02:54 pmSSE 14.0 21.0----29.85- 75.7 77.7----
2024-04-15 02:48 pmSSE 15.0 20.0----29.85- 75.6 77.7----
2024-04-15 02:42 pmSSE 12.0 20.0----29.85- 75.7 77.7----
2024-04-15 02:36 pmSSE 17.1 24.1----29.85- 75.6 77.7----
2024-04-15 02:30 pmSSE 18.1 22.0----29.86- 75.7 77.7----
2024-04-15 02:24 pmSSE 13.0 20.0----29.86- 76.1 77.7----
2024-04-15 02:18 pmSSE 14.0 22.0----29.86- 76.3 77.7----
2024-04-15 02:12 pmSSE 15.9 24.1----29.86- 76.1 77.7----
2024-04-15 02:06 pmSSE 14.0 21.0----29.86- 76.1 77.9----
2024-04-15 02:00 pmSSE 18.1 22.0----29.86-0.04 76.1 77.7----
2024-04-15 01:54 pmSSE 15.0 21.0----29.87- 76.3 77.7----
2024-04-15 01:48 pmSSE 15.0 20.0----29.87- 76.3 77.5----
2024-04-15 01:42 pmSSE 17.1 20.0----29.87- 75.9 77.5----
2024-04-15 01:36 pmSSE 14.0 20.0----29.87- 75.9 77.5----
2024-04-15 01:30 pmSSE 15.9 21.0----29.87- 75.9 77.5----
2024-04-15 01:24 pmSSE 15.0 24.1----29.88- 75.9 77.9----
2024-04-15 01:18 pmSSE 17.1 20.0----29.87- 75.9 76.8----
2024-04-15 01:12 pmSSE 17.1 22.0----29.88- 75.9 76.6----
2024-04-15 01:06 pmSSE 15.0 20.0----29.88- 76.1 76.6----
2024-04-15 01:00 pmSSE 14.0 20.0----29.88-0.02 76.3 76.5----
2024-04-15 12:54 pmSSE 17.1 20.0----29.88- 76.3 76.5----
2024-04-15 12:48 pmSSE 17.1 21.0----29.88- 76.5 76.3----
2024-04-15 12:42 pmSSE 17.1 22.0----29.88- 76.5 76.3----
2024-04-15 12:36 pmSSE 15.0 21.0----29.88- 76.3 76.3----
2024-04-15 12:30 pmSSE 13.0 20.0----29.88- 76.6 76.1----
2024-04-15 12:24 pmSSE 15.0 20.0----29.88- 76.3 76.1----
2024-04-15 12:18 pmSSE 14.0 18.1----29.88- 76.5 76.1----
2024-04-15 12:12 pmSSE 13.0 18.1----29.89- 76.5 75.9----
2024-04-15 12:06 pmSSE 14.0 19.0----29.89- 76.3 75.7----
2024-04-15 12:00 pmSSE 12.0 19.0----29.89+0.00 76.3 75.7----
2024-04-15 11:54 amSSE 13.0 17.1----29.89- 75.9 75.7----
2024-04-15 11:48 amSSE 14.0 18.1----29.89- 75.7 75.7----
2024-04-15 11:42 amSSE 14.0 21.0----29.90- 75.7 75.9----
2024-04-15 11:36 amSSE 13.0 17.1----29.89- 75.7 75.7----
2024-04-15 11:30 amSSE 12.0 20.0----29.89- 75.9 75.4----
2024-04-15 11:24 amSSE 15.0 20.0----29.89- 75.9 74.5----
2024-04-15 11:18 amSSE 13.0 17.1----29.90- 76.1 74.1----
2024-04-15 11:12 amSSE 12.0 18.1----29.90- 76.1 73.9----
2024-04-15 11:06 amSSE 12.0 17.1----29.90- 75.7 73.9----
2024-04-15 11:00 amSSE 12.0 18.1----29.90+0.01 75.9 73.8----
2024-04-15 10:54 amSSE 12.0 15.9----29.90- 75.9 73.8----
2024-04-15 10:48 amSSE 12.0 17.1----29.90- 76.1 73.6----
2024-04-15 10:42 am S 12.0 15.9----29.90- 75.7 73.6----
2024-04-15 10:36 am S 12.0 17.1----29.90- 75.4 73.6----
2024-04-15 10:30 amSSE 13.0 17.1----29.90- 75.4 73.6----
2024-04-15 10:24 amSSE 13.0 15.9----29.90- 75.7 73.6----
2024-04-15 10:18 amSSE 12.0 18.1----29.90- 75.7 73.4----
2024-04-15 10:12 am S 12.0 15.0----29.90- 75.6 73.4----
2024-04-15 10:06 am S 12.0 17.1----29.90- 75.6 73.4----
2024-04-15 10:00 am S 13.0 15.9----29.90+0.04 75.4 73.4----
2024-04-15 09:54 amSSE 13.0 17.1----29.89- 75.4 73.4----
2024-04-15 09:48 am S 12.0 15.0----29.90- 75.6 73.4----
2024-04-15 09:42 am S 12.0 17.1----29.90- 75.2 73.4----
2024-04-15 09:36 amSSE 11.1 14.0----29.90- 74.8 73.4----
2024-04-15 09:30 am S 12.0 15.9----29.90-- 73.4----
2024-04-15 09:24 am S 9.9 14.0----29.90-- 73.4----
2024-04-15 09:18 amSSE 11.1 15.9----29.89- 74.5 73.4----
2024-04-15 09:12 amSSE 11.1 15.0----29.89- 74.5 73.4----
2024-04-15 09:06 amSSE 12.0 15.0----29.89- 74.3 73.4----
2024-04-15 09:00 amSSE 11.1 14.0----29.89+0.03 74.3 73.6----
2024-04-15 08:54 amSSE 9.9 13.0----29.90- 74.1 73.8----
2024-04-15 08:48 amSSE 11.1 12.0----29.90- 73.9 73.8----
2024-04-15 08:42 amSSE 8.9 12.0----29.90- 73.9 73.8----
2024-04-15 08:36 am S 9.9 12.0----29.90- 73.9 73.8----
2024-04-15 08:30 am S 8.9 12.0----29.90- 73.9 73.8----
2024-04-15 08:24 am S 8.9 13.0----29.90- 73.8 73.9----
2024-04-15 08:18 am S 9.9 13.0----29.89- 73.8 73.9----
2024-04-15 08:12 am S 8.9 13.0----29.89- 73.8 73.9----
2024-04-15 08:06 amSSE 9.9 13.0----29.89- 73.6 73.9----
2024-04-15 08:00 amSSE 8.9 13.0----29.89+0.03 73.6 73.9----
2024-04-15 07:54 amSSE 11.1 13.0----29.89- 73.6 73.9----